[[{"header":{"parameterUnit":"m.s-1","parameterCategory":1,"la1":30.2991,"la2":30.254,"lo1":-89.0895,"lo2":-89.0444,"dy":0.0017,"dx":0.0017,"nx":28,"ny":28,"refTime":"2025-08-25T21:00:00:Z","depth":0,"parameterNumber":2,"parameterNumberName":"U-component_of_WINDS"},"data":[0,0,0,0,0,0,0,0,0,0,0,0,0,0,0,0,0,0,0,0,0,0,0,0,0,0,0,0,0,0,0,0,0,0,0,0,0,0,0,0,0,0,0,0,0,0,0,0,0,0,0,0,0,0,0,0,0,0,-3.1557,-3.1556,0,-3.1491,-3.149,-3.149,-3.135,-3.1347,-3.1345,-3.1342,-3.1278,-3.1279,-3.128,0,0,0,0,0,0,0,0,0,0,0,0,0,-3.1566,-3.1567,-3.1557,-3.1556,-3.1555,-3.1491,-3.149,-3.149,-3.1351,-3.1347,-3.1344,-3.1341,-3.1278,-3.1279,-3.128,0,0,0,0,0,0,0,0,0,0,0,0,0,-3.1538,-3.1567,-3.1557,-3.1478,-3.147,-3.1492,-3.149,-3.1489,-3.1352,-3.1347,-3.1343,-3.1339,-3.1277,-3.1279,-3.128,-3.1373,0,0,-3.1284,-3.1285,0,0,0,0,0,0,0,0,-3.1539,-3.1537,-3.1491,-3.1484,-3.1475,-3.1424,-3.147,-3.1451,-3.1353,-3.1397,-3.1342,-3.1337,-3.133,-3.1327,-3.1324,-3.137,-3.1367,-3.1284,-3.1285,-3.1286,-3.1286,0,0,0,0,0,0,0,-3.1541,-3.1539,-3.1531,-3.149,-3.1481,-3.1447,-3.1439,-3.1466,-3.1388,-3.1393,-3.1382,-3.1376,-3.1325,-3.1323,-3.1322,-3.1367,-3.1284,-3.1285,-3.1286,-3.1287,-3.1488,-3.1492,0,0,0,0,0,0,-3.1554,-3.1542,-3.1533,-3.1529,-3.1497,-3.1451,-3.1441,-3.1445,-3.1387,-3.1375,-3.138,-3.137,-3.1323,-3.132,-3.1319,-3.1425,-3.1286,-3.1287,-3.1288,-3.1484,-3.1489,-3.1494,0,0,0,0,0,0,-3.1555,-3.1555,-3.1536,-3.1533,-3.1528,-3.1455,-3.1461,-3.1446,-3.1444,-3.1378,-3.1364,-3.1392,-3.1319,-3.1317,-3.1361,-3.1421,-3.1288,-3.1289,-3.1478,-3.1485,-3.1491,-3.1638,0,0,0,0,0,0,-3.1556,-3.1556,-3.1589,-3.1534,-3.1528,-3.1578,-3.1464,-3.1448,-3.1446,-3.1432,-3.1385,-3.1373,-3.1316,-3.136,-3.1362,-3.142,-3.129,-3.1472,-3.1481,-3.1489,-3.1628,-3.1649,-3.1668,0,0,0,0,0,-3.1557,-3.1634,-3.1592,-3.1592,-3.1569,-3.1582,-3.1578,-3.151,-3.1451,-3.1485,-3.1444,-3.1375,-3.1414,-3.1365,-3.1367,-3.1427,-3.1468,-3.1479,-3.1489,-3.1619,-3.1645,-3.1667,0,0,0,0,0,0,-3.1698,-3.1625,-3.1578,-3.1639,-3.1618,-3.1558,-3.1598,-3.1539,-3.1535,-3.1522,-3.1438,-3.1429,-3.1485,-3.146,-3.1407,-3.1515,-3.143,-3.1442,-3.1529,-3.1553,-3.1573,-3.1577,-3.1291,0,0,0,0,0,-3.1736,-3.1752,-3.1687,-3.1748,-3.1739,-3.1672,-3.1674,-3.1624,-3.1599,-3.1589,-3.155,-3.1529,-3.1537,-3.1544,-3.1547,-3.1624,-3.1612,-3.1666,-3.1686,-3.1703,-3.1713,-3.1754,-3.1777,-3.1527,-3.1527,-3.1527,0,0,-3.1816,-3.1777,-3.1792,-3.1775,-3.1753,-3.1772,-3.1665,-3.1689,-3.1703,-3.1593,-3.1632,-3.1604,-3.1575,-3.1636,-3.1661,-3.1617,-3.178,-3.1716,-3.1729,-3.173,-3.1766,-3.179,-3.1811,-3.1534,-3.1533,-3.1532,0,0,-3.1969,-3.1942,-3.1989,-3.197,-3.1937,-3.1891,-3.1903,-3.1853,-3.183,-3.1868,-3.1786,-3.1802,-3.1817,-3.18,-3.1794,-3.1945,-3.1882,-3.1949,-3.2052,-3.2093,-3.2113,-3.213,-3.2184,-3.2205,-3.1959,-3.196,-3.196,0,-3.2072,-3.2096,-3.2022,-3.2052,-3.2048,-3.1949,-3.1998,-3.1982,-3.1953,-3.1953,-3.1904,-3.1922,-3.1895,-3.1952,-3.1989,-3.1987,-3.1999,-3.1953,-3.2116,-3.2132,-3.2147,-3.2198,-3.2219,-3.1968,-3.1967,-3.1966,-3.1965,0,-3.2225,-3.2244,-3.2287,-3.226,-3.2261,-3.2301,-3.2233,-3.2243,-3.2194,-3.2154,-3.2196,-3.2161,-3.2156,-3.2166,-3.2118,-3.2217,-3.2191,-3.2131,-3.2044,-3.218,-3.2227,-3.2246,-3.198,-3.1977,-3.1974,-3.1972,0,0,-3.2464,-3.2398,-3.2414,-3.2402,-3.236,-3.2374,-3.241,-3.2405,-3.2416,-3.24,-3.2429,-3.2445,-3.2389,-3.2382,-3.2331,-3.2367,-3.2491,-3.2302,-3.23,-3.2339,-3.26,-3.2646,-3.2669,-3.2449,-3.2453,-3.2455,-3.2602,0,-3.2608,-3.2665,-3.26,-3.2671,-3.2688,-3.2596,-3.2628,-3.2607,-3.2572,-3.2583,-3.2544,-3.2557,-3.2482,-3.2477,-3.2508,-3.2469,-3.2542,-3.2458,-3.2477,-3.2478,-3.2486,-3.2694,-3.2741,-3.2882,-3.262,-3.2623,-3.2625,0,-3.2783,-3.2775,-3.2848,-3.2803,-3.2808,-3.2838,-3.2829,-3.284,-3.2815,-3.2787,-3.2781,-3.272,-3.2755,-3.2671,-3.2718,-3.2663,-3.2667,-3.2649,-3.2653,-3.2652,-3.256,-3.2698,-3.2924,-3.2946,-3.2653,-3.2651,-3.2649,0,-3.2951,-3.2959,-3.3004,-3.2996,-3.2945,-3.2968,-3.2948,-3.2919,-3.2921,-3.2914,-3.2914,-3.2912,-3.2911,-3.2912,-3.2853,-3.2797,-3.2908,-3.2819,-3.2887,-3.2889,-3.2914,-3.2913,-3.3144,-3.2917,-3.2917,-3.2917,-3.2916,0,-3.3118,-3.3167,-3.3078,-3.3106,-3.3158,-3.3085,-3.3139,-3.311,-3.3085,-3.3107,-3.3028,-3.305,-3.2971,-3.2985,-3.294,-3.2987,-3.2987,-3.2966,-3.2953,-3.2973,-3.2976,-3.2974,-3.2963,-3.2922,-3.2921,-3.292,-3.2919,0,-3.3314,-3.3256,-3.3299,-3.3248,-3.3236,-3.3277,-3.3234,-3.3258,-3.3219,-3.3248,-3.325,-3.3189,-3.3202,-3.3144,-3.3147,-3.3116,-3.3187,-3.3158,-3.3195,-3.3186,-3.3257,-3.3252,-3.3495,-3.3524,-3.328,-3.3282,-3.3284,0,-3.3424,-3.3459,-3.3412,-3.342,-3.3404,-3.3419,-3.3421,-3.3351,-3.3356,-3.3332,-3.336,-3.3367,-3.3368,-3.3394,-3.3351,-3.3354,-3.3324,-3.341,-3.3324,-3.3343,-3.3326,-3.3325,-3.3328,-3.3427,-3.343,-3.3433,-3.3435,0,-3.3626,-3.3597,-3.3601,-3.3598,-3.3602,-3.3596,-3.3584,-3.3596,-3.3521,-3.3531,-3.3544,-3.3545,-3.3549,-3.3558,-3.3552,-3.3532,-3.3472,-3.3462,-3.3478,-3.3498,-3.3519,-3.3509,-3.3244,-3.3457,-3.3454,-3.3453,-3.3452,-3.3451,-3.3782,-3.3809,-3.3781,-3.379,-3.3774,-3.3766,-3.3787,-3.3751,-3.3759,-3.3756,-3.3715,-3.3737,-3.3713,-3.3699,-3.3686,-3.3703,-3.3663,-3.3686,-3.3691,-3.3698,-3.3711,-3.3517,-3.3702,-3.3701,-3.37,-3.37,-3.3699,0,-3.398,-3.3958,-3.3967,-3.3953,-3.3961,-3.3904,-3.3889,-3.3899,-3.3919,-3.3902,-3.3905,-3.3921,-3.3929,-3.3888,-3.3891,-3.3913,-3.3885,-3.3916,-3.3913,-3.391,-3.3746,-3.3732,-3.3938,-3.3938,-3.3938,-3.3938,-3.3938,-3.3938,-3.4084,-3.4128,-3.4096,-3.4132,-3.411,-3.4129,-3.4126,-3.4119,-3.4105,-3.4126,-3.4132,-3.4105,-3.4079,-3.408,-3.4086,-3.4073,-3.4078,-3.4119,-3.4098,-3.3945,-3.3921,-3.3899,-3.3886,-3.4121,-3.4121,-3.426,-3.4261,-3.4262]},{"header":{"parameterUnit":"m.s-1","parameterCategory":1,"la1":30.2991,"la2":30.254,"lo1":-89.0895,"lo2":-89.0444,"dy":0.0017,"dx":0.0017,"nx":28,"ny":28,"refTime":"2025-08-25T21:00:00:Z","depth":0,"parameterNumber":3,"parameterNumberName":"V-component_of_WINDS"},"data":[0,0,0,0,0,0,0,0,0,0,0,0,0,0,0,0,0,0,0,0,0,0,0,0,0,0,0,0,0,0,0,0,0,0,0,0,0,0,0,0,0,0,0,0,0,0,0,0,0,0,0,0,0,0,0,0,0,0,0.8017,0.8016,0,0.7949,0.7948,0.7947,0.7941,0.7942,0.7943,0.7943,0.787,0.7867,0.7865,0,0,0,0,0,0,0,0,0,0,0,0,0,0.8141,0.8139,0.8017,0.8016,0.8016,0.7949,0.7948,0.7947,0.7941,0.7942,0.7943,0.7944,0.7871,0.7868,0.7865,0,0,0,0,0,0,0,0,0,0,0,0,0,0.8081,0.8138,0.8017,0.8005,0.8003,0.7949,0.7948,0.7947,0.7941,0.7942,0.7943,0.7944,0.7872,0.7868,0.7864,0.7818,0,0,0.7852,0.785,0,0,0,0,0,0,0,0,0.8085,0.8077,0.8007,0.8005,0.8003,0.7955,0.7965,0.7903,0.7941,0.7964,0.7943,0.7945,0.7897,0.7891,0.7876,0.7814,0.7811,0.7852,0.7849,0.7848,0.7847,0,0,0,0,0,0,0,0.8089,0.808,0.799,0.8006,0.8004,0.8002,0.7994,0.7953,0.7925,0.7962,0.7962,0.7954,0.7896,0.788,0.7874,0.781,0.7852,0.7848,0.7846,0.7844,0.7707,0.7706,0,0,0,0,0,0,0.8096,0.8083,0.7992,0.7988,0.8048,0.7999,0.7991,0.7969,0.7926,0.792,0.7953,0.7954,0.7886,0.7879,0.7871,0.7814,0.7848,0.7844,0.7842,0.7708,0.7707,0.7705,0,0,0,0,0,0,0.8098,0.8088,0.7995,0.8035,0.8023,0.7995,0.7971,0.7967,0.7951,0.7919,0.7913,0.7941,0.7886,0.7877,0.7831,0.7811,0.7842,0.7839,0.771,0.7708,0.7706,0.7698,0,0,0,0,0,0,0.8102,0.8089,0.8071,0.8035,0.8021,0.7956,0.797,0.7965,0.7944,0.7945,0.7906,0.7901,0.7887,0.7837,0.7827,0.7806,0.7835,0.7711,0.7709,0.7707,0.77,0.7696,0.7693,0,0,0,0,0,0.8106,0.807,0.807,0.8059,0.7999,0.7955,0.7947,0.7932,0.7943,0.7924,0.7904,0.7902,0.7816,0.7833,0.7821,0.7799,0.7713,0.771,0.7707,0.7702,0.7697,0.7693,0,0,0,0,0,0,0.8103,0.8065,0.8064,0.8016,0.7989,0.7954,0.793,0.7928,0.7897,0.7898,0.788,0.7872,0.7827,0.7808,0.7828,0.7752,0.7765,0.776,0.7765,0.776,0.7757,0.7761,0.7832,0,0,0,0,0,0.8097,0.8065,0.8034,0.7994,0.7981,0.7959,0.7939,0.793,0.7901,0.7889,0.7866,0.7837,0.7803,0.7781,0.7748,0.7698,0.7689,0.7677,0.7674,0.7671,0.7666,0.7638,0.7632,0.7696,0.7696,0.7696,0,0,0.8083,0.8059,0.804,0.7993,0.7971,0.7939,0.7949,0.7913,0.7889,0.7883,0.7839,0.7821,0.7788,0.774,0.7718,0.7723,0.7647,0.7667,0.7665,0.7662,0.7635,0.7629,0.7623,0.7694,0.7695,0.7695,0,0,0.8041,0.802,0.7985,0.7963,0.7931,0.7916,0.7908,0.7874,0.7862,0.7818,0.7813,0.7784,0.7726,0.7703,0.7683,0.7635,0.7632,0.7625,0.7605,0.7579,0.7574,0.7569,0.7551,0.7545,0.7621,0.7621,0.7621,0,0.8027,0.7979,0.7966,0.7932,0.7911,0.7907,0.7871,0.7851,0.7808,0.7794,0.7802,0.773,0.7707,0.7654,0.7643,0.7628,0.7617,0.7628,0.7576,0.7571,0.7567,0.7549,0.7543,0.762,0.762,0.762,0.762,0,0.7964,0.793,0.7906,0.7867,0.7844,0.7808,0.779,0.7769,0.7763,0.7747,0.7702,0.7676,0.7638,0.7625,0.7618,0.7571,0.7575,0.758,0.7592,0.756,0.7543,0.7537,0.7619,0.7619,0.7619,0.762,0,0,0.7914,0.7871,0.7862,0.7845,0.781,0.7783,0.7748,0.7713,0.7694,0.7666,0.7635,0.7588,0.7593,0.757,0.7561,0.7538,0.7501,0.7545,0.7544,0.7537,0.7447,0.7443,0.7435,0.75,0.7499,0.7498,0.7449,0,0.7867,0.7805,0.7794,0.774,0.7709,0.7706,0.7676,0.7651,0.7636,0.7607,0.7591,0.7557,0.7566,0.7553,0.753,0.7511,0.7483,0.7514,0.747,0.7469,0.7477,0.7426,0.7421,0.7376,0.7443,0.7442,0.7441,0,0.7803,0.7775,0.7718,0.7689,0.7675,0.7648,0.7615,0.7588,0.756,0.7551,0.7527,0.7522,0.7485,0.7501,0.745,0.7472,0.7454,0.7442,0.744,0.7433,0.7451,0.7417,0.7362,0.7355,0.7431,0.7432,0.7432,0,0.7772,0.772,0.7679,0.7665,0.7629,0.761,0.7594,0.7568,0.7547,0.7519,0.7505,0.7472,0.7453,0.7428,0.7413,0.7427,0.7363,0.7378,0.7353,0.7353,0.7338,0.7338,0.7277,0.7329,0.7329,0.733,0.733,0,0.7719,0.7684,0.7665,0.7639,0.76,0.7588,0.755,0.7534,0.7511,0.7482,0.7478,0.7451,0.7434,0.7405,0.7393,0.7352,0.7344,0.7335,0.7332,0.7334,0.7335,0.732,0.7322,0.7328,0.7328,0.7328,0.7329,0,0.7676,0.7662,0.7617,0.7588,0.758,0.7553,0.7528,0.7503,0.749,0.7453,0.7444,0.7423,0.7388,0.7372,0.7328,0.7321,0.7274,0.7274,0.7283,0.7282,0.7257,0.7259,0.7183,0.7172,0.7233,0.7232,0.7232,0,0.7642,0.7616,0.7585,0.7566,0.755,0.752,0.7499,0.7488,0.7466,0.7434,0.7413,0.7379,0.735,0.7295,0.7275,0.7242,0.724,0.7216,0.7235,0.7238,0.7238,0.7239,0.7236,0.7211,0.721,0.721,0.721,0,0.7584,0.7579,0.755,0.752,0.7496,0.7471,0.7446,0.7431,0.7415,0.7392,0.7357,0.7336,0.7293,0.7258,0.7224,0.7208,0.7205,0.7204,0.7197,0.7197,0.7204,0.7199,0.7272,0.7205,0.7206,0.7206,0.7206,0.7207,0.7543,0.7519,0.7494,0.7463,0.7444,0.7422,0.7397,0.7382,0.7353,0.7318,0.7313,0.7276,0.7249,0.7204,0.7187,0.7157,0.7162,0.7151,0.7148,0.7145,0.7143,0.7211,0.7151,0.7151,0.7151,0.7151,0.7151,0,0.7483,0.7468,0.7439,0.7406,0.7381,0.7384,0.7358,0.7337,0.7304,0.7281,0.7254,0.7214,0.7182,0.716,0.7127,0.7108,0.7106,0.7099,0.7099,0.7095,0.7141,0.715,0.7101,0.7101,0.7101,0.7101,0.7101,0.7101,0.7449,0.7409,0.7401,0.7352,0.7336,0.7301,0.7285,0.7265,0.7246,0.7202,0.7176,0.7163,0.714,0.7106,0.7076,0.707,0.7058,0.705,0.7045,0.7087,0.7092,0.7097,0.7106,0.7048,0.7048,0.7002,0.7001,0.7001]}]]